GFSSGP_925_spd_060.txt.gz
Wind_Speed
13 17 12 3 1 1 3 6 5 5 4 3 7 5 3 4 2 3 12 17 27 26 22 18 18 17 16 14 14 15 15 14 14 13 14 14 15 14 13 13 13 11 11 10 11 10 11 11 11
23 17 6 2 0 4 3 7 13 12 9 9 11 9 7 5 8 13 17 27 29 27 23 20 19 18 16 15 14 14 14 12 12 12 11 12 12 12 12 13 12 12 10 11 9 9 9 8 9
26 17 3 3 1 6 9 12 11 12 12 11 9 7 4 5 12 19 20 30 28 25 22 20 20 18 16 14 13 13 12 11 10 10 10 9 10 9 9 9 9 11 10 9 10 8 6 8 8
12 6 2 2 4 0 14 14 17 15 13 11 10 6 7 19 19 17 34 32 28 26 23 21 19 18 16 14 13 12 12 11 10 9 9 8 7 6 5 5 5 7 8 8 9 8 8 7 7
3 3 3 3 5 2 7 15 17 16 10 14 14 10 5 7 28 37 36 31 30 27 23 21 19 17 16 15 14 13 12 11 9 9 9 8 8 5 3 5 4 5 6 6 8 8 6 7 7
4 2 4 4 5 4 4 14 16 14 14 14 11 7 4 23 34 29 32 30 28 30 26 22 19 18 16 15 14 13 13 11 9 8 8 7 7 6 5 2 5 4 4 4 5 6 6 5 6
4 3 2 4 2 10 7 14 13 16 16 9 10 9 7 16 27 31 32 28 28 26 25 23 21 19 17 15 14 13 11 10 8 7 7 7 7 7 7 5 3 4 5 5 4 4 5 5 5
5 3 5 3 4 4 3 4 15 16 6 16 19 7 8 16 28 30 29 26 26 25 25 23 21 19 17 16 14 14 13 11 10 9 7 7 7 7 7 7 7 5 4 5 5 4 5 6 5
3 4 2 4 3 3 7 8 11 8 17 7 6 12 14 32 28 26 23 22 24 22 23 22 21 19 16 14 13 12 12 11 10 10 9 8 8 8 7 6 7 6 5 5 5 5 6 6 7
4 4 5 9 6 6 9 9 5 7 8 11 14 15 23 30 28 23 20 19 20 23 23 21 20 19 17 16 13 13 13 13 11 10 9 8 7 6 5 5 6 6 6 6 5 4 5 5 6
5 6 8 8 13 16 5 3 2 4 5 13 20 20 18 22 21 23 23 29 31 26 22 21 20 18 17 16 13 13 14 14 14 11 9 6 9 9 8 5 8 7 7 7 6 6 5 5 7
5 9 8 5 13 11 9 4 8 8 9 12 14 17 16 13 16 19 22 24 24 26 23 21 19 18 16 15 15 13 14 14 15 13 12 9 9 8 9 11 9 7 7 8 8 9 7 6 9
4 12 9 14 19 19 10 8 5 6 17 18 15 15 12 10 16 22 27 28 30 29 25 23 22 20 14 18 17 16 16 17 17 14 16 15 14 12 8 6 10 9 11 10 8 6 8 4 9
4 15 19 4 17 19 16 8 5 3 18 19 20 16 14 14 19 17 21 22 31 31 28 25 24 19 15 14 10 13 12 13 14 12 13 18 19 12 11 9 9 8 11 12 11 10 9 12 10
5 7 7 19 9 4 5 6 3 10 15 20 21 16 14 11 21 19 22 28 30 32 29 27 25 20 16 13 9 6 6 10 10 14 16 18 15 13 11 8 6 7 9 11 11 13 14 16 10
7 6 5 6 9 9 4 6 7 7 15 15 15 14 12 10 19 24 24 28 29 30 28 27 24 21 13 9 5 7 9 7 4 9 12 16 12 11 9 6 4 5 8 11 13 16 16 13 12
6 1 4 5 7 6 7 7 6 9 8 5 7 6 8 9 11 25 25 27 30 30 27 26 23 19 13 9 4 5 7 3 6 7 11 15 14 10 8 6 4 5 7 11 14 16 13 8 8
6 3 5 3 9 5 7 10 6 9 10 11 7 7 5 6 15 26 28 27 28 28 27 26 22 18 13 9 3 2 5 6 6 6 6 6 11 13 11 8 6 7 9 10 11 13 10 13 11
4 3 4 5 5 2 7 6 10 8 13 12 12 14 13 11 17 25 31 29 30 28 30 25 23 19 15 11 5 2 2 7 5 6 5 3 5 8 10 9 7 5 6 7 5 9 12 16 14
7 3 7 4 6 3 9 15 8 13 18 13 18 14 14 15 13 17 26 30 31 32 29 27 23 18 15 11 7 4 4 5 6 3 2 1 3 5 6 7 5 3 3 1 1 6 8 8 8
6 8 5 9 4 4 3 7 5 4 11 10 10 14 16 20 15 15 19 25 28 31 32 29 23 17 15 12 9 7 5 7 7 6 2 4 3 3 3 2 3 2 1 2 1 3 4 6 7
5 13 11 16 3 7 7 6 6 4 11 13 12 12 14 7 10 12 15 20 25 30 32 27 21 18 15 13 10 8 9 7 5 6 6 5 7 5 5 7 5 2 0 1 1 2 4 8 10
9 9 13 9 6 6 5 2 6 3 6 11 13 16 13 10 13 15 17 26 25 28 31 26 20 18 14 13 8 6 9 3 7 7 7 8 9 9 7 3 2 3 3 2 2 2 1 1 5
5 4 8 6 5 2 5 5 4 7 19 6 6 16 17 14 14 10 10 16 22 26 30 22 16 16 15 12 9 8 6 4 10 7 6 6 11 10 5 6 5 6 6 7 7 5 5 5 3
7 7 3 4 5 5 3 1 8 5 7 9 14 16 14 18 13 13 9 10 18 23 27 19 19 17 14 13 8 5 6 6 3 4 5 11 17 10 9 7 8 6 8 6 5 5 6 4 1
5 8 6 5 3 6 3 5 3 5 6 6 5 11 15 14 14 16 13 17 20 20 23 20 20 17 12 11 8 5 2 4 9 10 10 12 11 9 11 8 10 11 9 9 7 5 4 3 4
8 1 6 7 1 4 4 6 6 5 5 11 14 11 14 14 17 17 10 19 23 24 22 21 20 16 12 12 11 8 2 1 8 11 11 11 11 9 11 9 6 9 8 8 8 11 10 8 9
9 5 0 3 3 4 5 4 5 3 4 20 15 13 13 26 29 4 7 18 21 25 20 23 19 19 15 14 11 7 6 5 9 10 12 12 11 12 11 8 5 7 7 7 7 11 9 10 11
1 2 4 5 5 5 3 6 6 5 5 12 13 12 19 11 27 22 10 20 23 26 25 23 20 21 19 17 13 11 8 12 14 12 13 12 12 11 9 7 7 7 6 7 7 9 9 10 12
6 7 6 5 7 2 4 5 7 6 7 5 10 16 22 23 25 16 15 21 24 26 28 26 22 22 20 17 15 12 18 12 12 10 10 12 11 9 10 9 11 11 12 10 11 10 9 10 12

GFSSGP_925_spd_063.txt.gz
Wind_Speed
21 18 11 2 1 2 4 5 2 4 3 4 4 4 5 4 1 2 9 13 24 23 19 18 16 15 14 14 15 16 17 17 16 16 16 15 14 13 13 12 11 12 13 12 12 10 11 12 12
22 18 5 1 2 4 3 2 9 4 3 6 7 4 5 3 4 9 11 12 24 22 20 19 17 15 14 14 14 15 15 15 15 14 14 13 12 11 12 11 10 11 11 11 11 10 10 11 12
21 11 2 4 1 2 3 2 10 5 6 4 3 4 3 2 7 12 9 22 24 22 19 19 18 16 15 14 14 14 14 15 13 13 12 11 10 10 11 10 9 9 9 10 9 9 9 10 11
11 3 3 2 3 2 5 6 6 7 9 9 7 5 5 6 13 9 25 27 24 21 20 19 19 17 15 14 14 14 14 13 14 12 12 11 10 8 6 6 6 8 8 8 8 9 9 9 9
3 2 3 4 4 4 5 9 9 7 5 8 6 4 3 3 10 25 28 26 26 24 21 20 18 17 15 14 14 14 14 13 13 12 11 10 10 8 7 6 5 6 7 7 7 7 9 9 8
2 1 5 4 6 6 3 7 7 8 9 10 7 5 2 15 26 24 26 25 24 24 21 19 18 16 15 14 14 13 13 13 12 12 11 10 9 8 7 6 6 6 7 7 7 7 7 8 9
3 3 2 2 4 3 4 4 6 9 9 4 7 5 3 9 21 26 22 23 24 22 20 19 18 17 16 15 14 14 14 13 13 13 12 11 9 8 9 8 6 7 7 8 8 8 8 8 9
3 3 3 2 3 5 3 2 3 6 2 6 13 5 5 12 22 23 20 21 22 21 20 20 19 18 17 16 15 14 14 13 13 13 12 11 11 9 8 7 6 6 6 6 6 6 7 7 8
3 4 2 4 4 3 7 7 6 2 12 5 5 5 12 21 24 22 20 17 21 21 20 20 19 18 17 16 15 15 14 13 12 12 12 12 12 10 8 7 7 6 5 5 6 6 7 6 8
3 3 3 3 7 7 7 6 10 6 8 2 6 11 27 25 24 22 17 17 21 23 23 22 20 19 17 16 15 14 14 14 13 14 14 13 12 12 9 8 7 7 6 6 6 5 5 6 7
4 6 4 8 8 7 4 4 1 11 4 8 17 15 20 22 21 20 19 26 33 26 23 23 21 20 19 17 15 14 14 14 14 14 14 13 12 12 11 11 11 10 9 9 8 9 9 8 9
3 6 6 6 12 9 5 8 4 9 7 13 18 21 18 15 16 19 20 21 22 24 24 23 21 20 19 17 16 14 15 16 16 16 14 15 13 12 10 11 10 12 12 12 11 11 10 10 10
5 5 9 10 8 8 7 5 4 7 10 15 15 17 18 15 18 20 26 27 25 25 25 24 22 22 19 19 16 16 17 16 13 16 15 15 14 13 9 10 14 12 13 13 12 11 10 9 9
4 6 4 12 15 8 7 3 2 2 14 16 16 14 15 17 21 19 19 24 28 27 26 24 24 22 20 18 16 15 18 16 17 18 18 18 16 13 11 8 12 12 13 13 11 12 11 9 10
5 5 7 6 6 5 5 6 8 5 16 18 18 15 14 15 22 23 29 29 33 31 28 26 25 22 20 17 16 12 13 15 12 11 14 17 16 15 11 12 12 13 13 14 13 13 13 15 16
6 4 4 3 6 3 6 10 8 9 14 16 17 15 17 16 23 27 31 34 31 30 30 27 26 24 17 13 10 6 6 9 10 16 18 20 16 14 13 13 11 10 11 12 12 13 14 16 17
5 3 3 1 9 6 5 7 5 7 12 13 15 17 16 14 14 23 30 30 32 30 31 30 27 23 18 10 8 1 4 2 2 7 9 14 13 11 10 10 9 7 10 11 11 13 15 11 8
5 5 3 6 9 11 12 11 7 9 13 14 13 17 15 14 18 25 29 31 31 31 31 30 26 22 18 11 8 3 3 5 4 5 7 12 15 12 11 11 10 8 9 11 10 11 10 11 7
3 4 8 6 6 6 11 9 10 17 12 12 14 15 14 16 16 21 27 30 29 30 30 28 26 24 19 14 9 4 4 6 5 5 6 6 8 13 15 13 11 9 9 8 7 7 6 9 10
6 7 11 8 6 7 13 8 6 13 22 24 21 16 13 7 8 9 19 25 32 33 31 28 29 26 19 16 10 6 6 6 5 5 4 5 6 7 10 11 11 11 7 5 6 6 5 4 4
5 7 9 10 5 2 2 7 2 5 3 13 9 7 6 11 12 9 12 19 25 28 31 30 26 21 18 14 13 10 7 7 7 6 4 4 5 5 5 4 3 5 4 5 5 6 7 5 4
4 11 16 9 3 5 4 5 6 3 1 7 9 8 10 8 8 7 11 15 22 30 30 29 19 19 18 16 14 13 10 11 8 6 5 6 7 6 6 5 3 4 4 6 7 7 9 9 9
11 7 15 10 3 5 3 3 8 3 5 10 10 9 8 7 9 10 13 19 20 25 33 35 23 20 20 17 13 11 12 10 9 8 8 8 9 7 6 4 3 2 3 5 5 4 5 5 7
3 4 8 6 5 1 7 5 6 4 8 5 7 8 9 11 8 7 9 15 17 22 30 14 8 15 18 17 14 11 12 8 10 10 13 11 12 11 7 3 1 1 1 1 3 3 2 2 3
5 6 2 2 2 6 4 3 9 7 8 9 12 9 10 10 8 7 9 15 19 21 20 12 12 15 13 17 12 10 9 6 10 11 12 12 14 12 8 5 1 3 3 0 1 0 0 1 2
2 7 6 5 3 5 4 4 5 3 8 9 5 6 13 14 15 14 17 21 18 23 23 16 16 18 14 13 10 8 8 6 7 8 8 5 12 11 9 7 7 5 5 3 1 2 1 1 1
2 2 5 7 3 2 3 6 6 6 11 9 13 14 11 13 14 13 19 21 18 24 25 20 19 15 14 12 11 9 6 4 8 13 10 12 12 11 10 7 5 5 3 3 2 4 5 3 5
6 6 2 3 4 4 5 4 5 4 4 4 8 9 7 4 8 17 11 30 24 23 25 21 21 19 17 14 11 9 7 5 10 14 15 14 14 13 12 8 4 4 3 2 2 4 4 5 6
2 2 6 6 4 6 1 6 6 6 4 4 5 7 8 9 5 8 0 8 18 25 23 23 21 20 19 17 13 12 13 17 16 13 13 16 16 14 12 9 6 6 4 3 2 3 4 6 7
2 5 6 5 5 1 4 6 4 7 8 4 4 9 3 10 9 9 4 15 15 15 22 25 24 23 22 19 15 13 18 17 16 15 13 14 11 10 11 9 10 10 9 6 5 4 5 7 9

GFSSGP_925_spd_069.txt.gz
Wind_Speed
10 6 2 3 1 2 9 6 2 7 3 2 3 2 5 4 2 2 7 6 18 20 18 17 18 19 18 17 17 16 17 16 16 16 15 13 12 10 10 10 8 7 8 10 11 12 13 12 11
11 5 3 2 3 10 8 5 8 4 8 10 9 5 3 4 4 8 11 12 19 19 18 16 18 18 18 17 17 16 16 15 16 15 15 13 10 10 10 10 9 9 9 10 11 11 11 12 12
10 3 2 2 2 10 8 5 8 9 7 2 4 5 2 3 5 14 7 18 18 17 17 16 16 17 18 18 16 15 15 14 14 14 14 13 12 11 10 9 9 9 9 9 10 11 11 12 12
5 2 2 1 7 4 3 6 7 5 5 7 8 7 4 1 10 7 16 19 18 17 16 16 17 16 17 17 17 16 14 12 12 12 11 10 11 10 10 10 9 8 10 9 11 10 11 12 11
4 1 1 3 5 3 4 6 3 3 3 4 4 5 5 1 5 12 18 19 18 17 16 15 16 15 16 16 16 15 14 14 12 11 11 11 9 8 7 8 9 8 9 9 10 11 11 13 13
2 2 2 5 3 3 3 5 4 2 3 5 8 7 3 2 9 15 17 17 16 16 15 15 15 15 14 13 14 14 13 12 12 11 11 11 10 9 7 7 7 8 8 9 9 10 10 11 13
1 1 2 2 1 1 3 6 1 4 5 3 8 6 2 4 9 13 15 14 14 14 15 14 14 14 13 13 13 14 14 12 11 11 10 10 10 8 7 7 7 7 7 8 9 10 10 11 11
2 2 1 1 3 1 5 7 4 4 4 8 6 3 6 9 14 13 12 11 11 12 12 13 14 13 13 12 13 12 12 12 11 11 11 10 8 8 8 8 8 8 8 9 10 11 11 12 12
2 2 2 2 5 1 8 6 6 2 6 6 7 4 5 19 17 15 12 11 11 11 12 12 13 13 12 11 11 11 11 10 10 10 10 8 8 9 8 9 10 9 8 8 10 10 11 11 12
3 2 2 2 3 4 13 9 12 5 9 6 7 4 17 21 19 17 16 14 15 15 14 13 12 12 12 10 10 10 9 8 9 9 10 11 10 10 9 10 10 9 8 8 8 10 11 11 11
2 3 5 5 8 8 10 11 10 6 8 10 11 12 18 17 19 17 15 16 17 14 14 15 13 13 13 11 11 12 14 10 8 12 12 12 11 11 11 10 10 10 10 8 8 8 9 10 11
4 8 6 5 8 8 8 8 7 14 2 6 12 17 18 17 18 19 17 17 15 16 15 14 14 14 14 12 12 14 14 13 7 17 15 15 13 12 13 13 13 12 12 10 10 9 8 8 9
8 6 6 8 5 6 9 11 6 13 2 7 15 16 17 16 19 19 19 16 14 16 15 16 16 17 14 14 14 15 17 16 12 14 19 17 15 15 14 17 17 17 15 12 10 10 10 9 9
3 10 13 5 5 7 10 7 6 6 9 12 18 19 17 17 20 18 18 18 17 17 16 15 17 17 16 16 16 16 16 18 22 19 19 22 21 19 17 16 17 15 13 13 11 11 10 9 8
4 7 8 5 3 2 7 9 13 7 14 15 17 17 17 17 19 22 23 21 21 20 17 17 19 18 18 17 16 15 17 18 19 23 24 23 24 25 19 17 16 17 17 14 13 13 11 11 12
3 2 5 2 4 1 7 8 8 12 15 17 17 16 16 18 22 23 23 23 22 19 19 17 16 18 18 17 16 15 17 12 13 17 19 17 27 25 24 21 18 14 13 12 12 12 11 12 12
1 4 3 3 3 3 4 10 5 8 14 15 17 17 16 16 19 23 24 24 21 20 19 20 20 18 18 17 15 12 13 11 7 9 14 16 16 22 25 23 21 18 13 12 12 11 11 11 11
2 2 3 6 2 4 6 17 9 7 13 16 15 17 16 16 21 26 25 23 22 20 18 18 18 17 18 15 13 11 7 7 6 4 7 11 16 18 19 20 17 17 13 12 11 11 10 12 11
2 4 7 10 3 4 12 18 20 7 13 15 14 16 16 18 20 19 22 25 22 15 13 15 16 13 16 13 8 8 8 8 6 5 6 8 10 15 17 16 17 16 15 13 12 11 12 11 10
5 8 12 11 6 6 11 15 16 14 15 19 18 19 19 19 18 17 21 21 20 14 7 9 8 3 8 8 10 7 9 7 9 7 7 9 11 15 14 14 13 13 12 11 11 12 9 10 11
7 10 12 11 0 9 3 10 9 10 12 13 14 17 20 20 21 17 16 18 12 12 21 22 18 7 8 11 9 10 7 7 8 9 9 10 10 12 15 14 14 15 13 14 10 11 12 8 10
11 10 16 10 4 4 2 5 5 8 14 13 14 14 17 17 17 17 15 12 17 24 30 26 4 13 15 13 16 15 11 8 10 9 9 9 10 11 12 12 12 11 9 9 9 10 10 9 10
9 3 4 4 7 2 6 5 4 2 10 12 8 9 15 18 21 20 15 16 31 33 34 28 21 2 13 20 22 18 14 15 8 8 9 8 10 9 9 9 10 8 7 6 7 8 10 10 12
5 1 3 2 4 7 4 5 7 4 2 10 4 6 9 14 18 14 15 26 30 23 26 21 12 13 18 17 13 13 16 14 10 11 12 10 9 9 9 8 6 5 4 4 5 8 9 9 10
5 4 3 6 6 8 3 4 8 7 5 9 15 10 8 13 13 13 17 21 23 22 21 21 12 10 11 10 18 13 15 15 12 15 13 12 15 14 10 8 5 3 4 3 3 4 5 6 7
8 5 5 9 7 7 3 4 4 1 2 6 8 5 7 11 10 10 13 21 30 35 43 34 24 11 9 16 18 18 17 11 11 13 13 13 15 14 12 7 3 4 4 4 2 4 4 5 5
6 5 2 5 2 3 2 4 10 6 5 6 6 3 5 5 7 12 15 16 19 25 28 35 33 29 15 15 13 16 13 9 10 8 11 11 9 10 11 7 5 3 3 2 2 3 3 3 3
5 9 3 1 4 6 4 4 6 9 7 5 7 4 5 7 9 9 9 17 18 16 21 34 30 14 10 15 15 12 8 7 5 6 7 8 10 11 9 5 3 2 2 2 1 0 1 2 2
4 4 3 2 2 5 8 4 6 5 5 8 7 5 8 10 9 7 9 8 7 14 16 18 21 13 17 17 14 11 8 7 9 7 5 7 7 8 7 5 3 2 1 1 1 1 1 2 2
2 3 5 4 5 1 3 5 2 5 6 6 8 6 7 4 3 5 5 6 7 16 21 16 16 17 17 16 13 9 8 10 9 8 8 7 9 6 5 5 4 4 2 1 1 1 1 2 3

GFSSGP_925_spd_072.txt.gz
Wind_Speed
9 6 4 6 6 4 12 7 6 7 5 3 5 6 10 9 9 5 15 11 17 17 17 15 17 14 14 13 14 14 13 13 14 14 12 11 8 7 7 7 8 7 5 8 9 10 11 11 10
8 4 5 4 1 11 11 9 8 8 8 8 6 4 4 8 9 14 14 16 18 17 16 16 17 16 14 14 14 13 12 12 12 12 11 10 9 9 8 7 7 6 7 8 9 10 10 9 11
7 3 4 5 11 14 11 10 10 8 4 1 4 8 4 7 12 14 15 21 18 17 16 17 16 16 15 15 14 14 12 11 11 10 9 8 9 8 8 7 6 8 7 7 9 9 9 10 10
6 5 6 4 16 12 12 9 7 6 6 5 6 9 9 8 8 8 19 21 19 15 15 17 17 15 15 14 13 13 12 12 11 11 9 8 7 6 6 7 7 7 7 7 8 8 10 10 11
5 4 4 11 15 12 10 8 5 6 5 4 2 7 10 7 8 15 18 18 17 15 13 15 18 15 15 15 15 14 12 11 12 11 9 7 9 8 7 6 7 7 9 6 8 9 9 9 11
4 4 7 11 13 9 7 5 4 6 4 5 8 9 7 8 13 16 18 15 15 14 13 15 14 16 14 15 14 14 13 12 12 11 10 8 7 6 5 6 6 7 8 8 8 9 10 9 10
6 4 7 9 9 8 6 3 3 7 5 6 6 6 8 11 13 17 16 14 14 13 13 13 13 13 14 14 13 13 12 11 11 10 9 9 8 6 6 6 7 7 8 9 9 9 10 10 11
5 5 2 3 6 10 6 5 4 2 6 7 3 3 11 16 16 15 15 14 13 13 12 12 13 12 12 10 12 12 12 11 10 9 8 8 8 8 8 8 8 8 8 9 10 10 10 11 11
5 4 3 6 4 7 6 4 5 3 8 4 6 1 11 20 18 16 15 14 14 13 13 13 12 10 10 9 10 10 10 9 7 8 9 8 8 10 9 9 8 8 8 9 10 10 11 11 11
6 4 5 5 4 2 6 5 8 5 7 6 8 4 15 20 18 17 16 16 16 15 15 14 13 13 11 10 9 10 10 9 9 9 9 10 10 8 10 8 11 8 8 8 10 10 11 11 12
1 6 8 5 3 3 5 9 7 6 6 6 10 11 17 18 18 17 16 15 16 15 14 14 14 13 13 11 10 10 10 11 9 8 10 9 10 9 11 10 9 10 10 10 10 10 12 13 12
9 4 6 7 6 5 6 7 9 9 5 2 8 16 18 17 16 17 15 14 15 15 14 14 14 14 14 11 12 11 11 11 12 5 12 10 11 11 12 12 12 12 10 10 10 12 10 11 12
11 11 9 7 7 9 7 10 11 9 7 5 12 17 19 17 17 18 15 14 14 15 15 15 15 14 15 14 11 11 13 13 13 9 6 16 14 14 13 13 12 11 11 11 11 10 10 11 11
12 11 16 9 8 7 12 10 9 6 10 11 15 17 17 18 19 18 17 15 15 14 14 13 14 14 14 15 15 14 13 14 14 18 16 16 19 15 14 14 14 14 13 13 12 12 12 12 12
9 15 15 2 4 1 9 11 14 13 11 13 16 17 16 17 20 20 19 18 16 13 12 13 13 13 14 14 13 12 12 13 13 19 21 22 20 22 17 15 13 12 12 11 13 11 11 11 12
10 10 14 9 0 4 7 5 3 6 12 14 15 15 17 18 20 20 18 18 15 13 13 12 12 13 12 11 11 11 10 12 12 11 12 19 24 23 20 20 16 12 11 13 11 11 12 13 13
12 14 11 7 0 1 8 11 7 4 10 13 13 15 15 16 20 20 19 18 16 16 14 15 14 12 12 11 11 9 9 10 10 9 8 13 16 20 25 21 23 15 12 12 12 12 12 13 13
16 11 11 11 1 7 10 12 12 9 8 12 12 14 16 18 21 23 20 19 18 18 17 13 11 10 10 9 9 9 9 8 7 7 6 7 11 13 20 23 20 16 14 14 12 11 12 14 14
10 11 16 14 4 11 15 13 12 10 10 12 12 13 17 20 17 20 20 20 18 17 14 12 12 10 9 4 7 10 9 7 6 6 4 4 7 14 12 14 17 18 18 13 9 11 13 16 13
16 16 19 16 9 10 13 12 14 14 12 11 13 14 16 17 16 18 21 21 21 16 13 16 17 14 15 9 26 13 5 4 7 7 6 6 7 11 15 17 17 22 17 16 13 13 13 15 11
17 18 17 17 11 10 14 16 15 11 6 8 10 10 15 17 18 18 18 21 22 19 17 18 17 10 10 11 12 10 3 4 8 9 8 8 8 11 13 13 15 14 15 13 14 14 14 13 10
17 14 14 17 17 15 10 12 7 7 9 5 3 8 12 16 17 17 18 20 20 21 19 8 6 2 5 12 12 13 7 7 8 10 9 8 9 9 10 12 13 13 14 13 14 14 12 11 13
15 6 9 12 14 16 16 9 14 4 9 7 5 4 7 13 15 17 18 19 21 24 22 16 16 14 21 22 20 17 12 9 9 10 10 10 9 10 9 10 9 8 9 8 9 10 11 14 16
6 8 10 9 13 15 20 12 14 11 2 6 2 7 8 6 8 13 16 25 27 30 34 29 28 35 14 18 17 17 14 10 9 11 11 10 9 10 9 8 6 5 6 7 9 11 13 12 12
10 13 10 11 11 14 5 8 13 12 6 8 9 10 8 2 7 11 15 22 29 33 29 13 24 25 5 14 14 13 9 6 9 10 11 10 8 8 9 6 3 3 5 6 7 7 8 8 8
18 16 11 13 12 12 7 9 11 2 4 5 6 6 3 5 9 11 17 23 24 30 21 21 32 16 5 6 13 10 6 4 6 6 8 9 8 5 4 4 2 2 4 4 5 7 7 7 8
13 10 15 13 10 9 9 6 7 13 10 11 5 3 6 8 10 12 14 19 21 24 19 17 19 7 2 1 7 8 9 8 4 3 4 6 10 13 7 4 2 2 3 3 4 4 5 6 6
14 8 10 10 16 10 10 7 9 9 9 5 2 5 7 9 11 12 10 18 20 22 17 13 15 10 4 4 7 9 8 6 3 3 6 9 10 14 13 9 6 5 4 3 4 3 2 5 6
12 13 12 11 5 9 9 7 4 4 7 8 5 6 8 10 11 12 12 14 14 13 14 17 15 8 2 7 7 7 7 7 6 7 8 10 12 12 10 8 5 4 4 4 4 3 2 3 4
9 16 20 12 14 12 10 11 7 5 4 4 4 4 7 8 9 10 12 13 11 7 8 11 15 11 11 8 7 7 8 10 9 9 9 9 10 10 11 7 6 4 2 2 3 3 1 1 3

GFSSGP_925_spd_075.txt.gz
Wind_Speed
11 10 10 16 6 1 13 8 10 11 14 12 8 14 12 13 13 5 17 17 17 19 16 14 14 12 11 11 12 13 11 10 10 10 8 7 4 4 5 4 5 4 4 6 7 9 9 8 8
12 9 13 7 3 11 12 14 15 14 12 5 6 7 7 15 12 16 13 16 17 19 16 15 15 13 12 11 12 12 12 11 10 9 7 6 5 5 5 5 5 5 6 8 7 9 8 7 9
11 9 9 6 12 13 13 14 12 8 2 5 6 14 12 10 13 13 17 17 17 15 16 16 16 15 13 12 12 12 11 11 10 9 7 5 5 5 5 5 5 6 7 7 7 7 7 8 10
7 8 7 7 17 16 15 10 6 11 8 10 7 13 14 13 5 14 18 16 14 20 16 15 16 15 14 13 11 11 10 9 8 7 6 4 5 4 4 5 5 6 6 7 7 7 8 9 9
14 9 4 13 16 14 13 10 7 11 7 10 8 11 11 8 12 18 17 15 12 25 17 16 15 13 12 12 11 10 9 8 8 6 6 5 5 4 4 4 5 6 6 6 7 7 8 9 8
9 6 7 12 12 15 10 11 10 10 10 6 11 11 12 12 15 17 16 14 14 19 16 15 14 12 12 11 11 10 8 7 7 6 6 5 6 4 3 4 4 5 7 6 7 8 8 9 8
15 6 8 9 14 12 12 4 13 9 8 9 2 12 10 13 15 17 15 12 12 11 17 14 12 12 11 11 11 10 8 7 7 7 7 6 6 6 5 6 5 5 6 7 7 7 8 8 9
8 10 6 11 10 11 6 13 7 9 11 7 4 7 12 17 18 17 15 12 11 11 17 12 13 13 12 11 11 11 10 8 9 8 7 7 7 8 6 6 6 7 6 6 7 7 8 8 8
14 10 4 6 9 5 8 7 4 3 10 3 3 7 19 22 20 18 15 14 12 12 11 16 14 12 12 11 12 11 11 11 11 9 9 9 8 9 9 7 7 6 7 7 7 8 8 8 9
12 9 6 5 6 6 8 5 5 7 10 6 9 8 19 22 20 18 16 15 16 14 13 12 14 14 12 12 13 12 12 11 11 10 8 9 9 6 8 5 9 7 7 8 9 8 9 10 11
10 11 7 5 7 3 2 8 3 5 10 10 12 13 17 20 19 17 16 16 16 15 14 12 13 13 13 12 11 13 11 10 9 7 8 10 9 7 8 11 8 8 10 10 10 10 10 13 13
9 12 6 4 3 5 5 4 7 7 7 3 9 16 18 18 16 17 16 17 17 17 16 16 15 14 13 10 11 12 11 12 9 9 5 10 8 9 11 14 12 10 9 11 15 12 11 14 13
13 10 10 12 5 6 12 9 5 7 7 5 12 16 18 17 17 17 17 15 18 18 17 16 16 15 14 12 10 9 10 11 12 15 8 8 12 12 11 12 11 2 8 9 10 14 13 9 12
18 13 15 16 9 5 9 10 10 6 7 8 13 16 17 17 18 18 17 17 17 18 17 16 16 16 16 15 11 11 11 12 14 18 19 14 12 13 13 12 12 13 8 9 11 10 11 10 12
14 17 17 17 2 5 6 13 11 7 11 10 14 15 16 16 19 19 19 17 18 18 17 16 14 14 14 15 15 14 11 12 13 17 19 20 20 14 15 13 9 11 12 11 13 11 12 9 12
18 17 15 12 4 8 7 7 12 7 13 12 14 15 15 17 17 20 20 20 19 17 16 15 14 14 14 13 12 12 12 12 13 14 15 16 18 18 14 16 15 9 7 10 11 12 12 13 14
18 16 17 17 6 4 7 15 8 4 6 11 14 14 15 16 17 20 22 22 20 17 16 14 12 13 14 14 10 10 10 9 11 12 10 12 13 19 20 17 17 10 9 8 11 12 13 15 14
18 17 15 14 7 6 14 16 13 8 6 11 12 16 16 16 20 23 23 23 20 18 14 12 12 10 12 12 10 8 8 9 9 6 7 6 9 14 19 22 15 13 11 11 10 13 15 13 12
18 20 17 16 11 11 14 18 17 13 12 10 11 14 15 17 18 26 24 23 21 20 18 14 12 12 12 11 14 9 7 8 7 5 5 5 8 12 15 20 18 14 14 12 14 14 11 13 14
15 15 18 17 18 18 13 19 14 12 13 11 11 15 15 16 17 20 25 24 23 23 20 16 13 13 15 19 16 11 12 6 10 6 6 6 6 10 11 12 15 16 17 14 15 14 14 12 11
18 18 17 17 17 19 12 18 17 19 14 6 7 7 14 16 18 19 22 26 26 25 22 19 16 20 24 19 14 11 5 8 11 9 9 8 7 9 12 13 12 17 17 19 19 23 17 14 10
19 16 17 17 14 13 17 15 17 8 9 9 7 9 10 13 13 17 20 25 27 26 24 24 25 25 15 17 14 13 11 12 7 7 9 9 9 9 11 11 11 13 15 19 16 16 15 12 13
17 14 15 13 14 17 20 12 12 11 7 11 10 6 3 4 15 15 22 26 24 27 26 32 27 12 9 15 14 14 14 13 11 10 7 8 9 10 10 12 12 12 12 13 12 11 13 13 14
18 15 15 14 15 14 18 17 16 13 1 7 6 8 6 2 9 13 23 28 24 27 26 26 17 9 9 9 13 12 12 11 11 11 9 7 9 10 9 9 8 8 7 7 9 10 11 14 11
18 15 11 13 13 13 17 18 16 6 6 2 7 8 4 1 7 13 16 19 26 26 27 20 8 5 3 8 8 10 10 10 13 9 7 7 7 6 8 8 7 5 5 5 7 8 8 7 9
17 17 13 15 12 12 17 9 10 10 5 4 6 3 1 6 7 12 15 20 22 23 25 20 5 8 4 3 4 5 6 7 8 5 3 5 7 9 11 8 5 4 3 4 5 7 7 7 9
18 17 20 19 17 12 12 11 9 5 10 8 6 7 4 8 9 12 15 18 21 21 24 16 6 8 1 2 3 5 7 6 1 1 3 5 7 10 10 7 5 3 4 4 6 5 5 6 5
22 15 11 11 16 16 13 12 8 8 5 13 11 9 7 9 11 11 14 17 17 18 20 15 7 10 1 1 2 5 7 5 2 4 4 8 8 10 10 6 3 3 4 4 4 4 3 4 6
15 16 14 17 15 12 13 8 12 9 12 10 9 9 10 11 11 10 11 13 12 15 16 14 14 15 7 5 7 9 8 6 6 8 8 10 10 8 6 6 4 3 3 3 3 5 4 5 3
20 20 20 13 15 13 12 13 10 10 10 7 10 10 10 11 13 11 10 12 15 16 18 15 16 12 10 10 10 10 9 10 10 9 10 11 10 9 7 5 3 4 3 2 3 4 2 4 3

GFSSGP_925_spd_078.txt.gz
Wind_Speed
13 11 10 7 5 6 18 19 19 18 17 12 12 15 17 14 7 11 21 29 23 22 19 17 16 15 14 13 13 12 11 11 11 10 8 7 6 6 6 7 6 6 6 7 9 9 8 8 8
12 14 10 6 6 13 13 15 15 12 7 14 17 15 21 18 18 13 18 27 21 19 18 16 16 15 15 14 12 12 11 10 10 8 6 5 5 6 6 6 5 6 7 7 8 9 7 8 8
17 18 7 4 10 13 12 12 12 9 8 11 18 14 12 12 13 13 18 23 20 18 18 17 16 14 14 15 13 12 11 10 9 7 6 4 4 5 5 4 6 6 6 6 8 8 6 8 8
9 7 6 2 15 16 14 12 11 11 14 6 17 13 14 9 9 19 16 23 16 20 20 16 15 14 13 13 12 11 10 9 8 7 6 5 5 4 5 5 6 6 5 6 6 7 8 9 8
15 7 11 12 15 14 9 11 15 14 12 13 16 13 11 14 19 19 14 13 24 17 19 18 15 13 13 12 13 11 10 10 8 7 6 5 5 4 4 4 5 6 5 5 7 7 8 8 8
9 8 9 11 15 13 7 14 12 13 11 13 14 14 12 16 17 16 14 21 22 19 17 18 16 13 12 11 11 10 9 9 8 7 5 4 7 5 4 4 4 5 6 5 7 6 7 8 8
18 7 2 7 10 14 3 10 10 13 11 8 13 14 10 14 16 15 12 16 20 22 21 17 14 13 12 11 10 10 9 8 7 7 6 5 5 4 4 5 5 5 7 6 6 7 7 7 8
11 7 26 10 7 13 5 10 11 14 11 6 4 9 13 17 19 16 11 10 11 26 21 20 15 12 12 12 12 10 9 8 9 8 8 8 7 7 7 6 6 7 7 8 7 7 8 7 8
14 7 9 13 11 9 6 6 11 13 4 9 6 12 20 22 21 18 15 13 10 17 19 19 17 15 14 14 12 12 11 9 8 8 9 8 8 10 10 7 10 8 8 8 8 8 8 7 9
8 10 20 7 6 12 18 2 12 17 19 9 10 18 23 23 21 19 17 16 14 12 20 18 18 17 14 14 14 10 10 11 11 10 12 10 8 11 10 11 10 10 9 10 9 9 10 9 9
13 8 8 6 8 10 18 10 16 25 15 12 16 18 19 21 20 18 16 16 14 14 12 24 23 17 17 14 13 14 13 11 13 11 12 9 10 9 10 11 12 13 13 10 11 12 12 12 12
7 13 10 11 3 5 7 4 6 2 9 11 21 21 20 19 17 19 18 19 18 16 14 13 15 16 14 12 14 17 17 13 12 14 10 8 11 9 10 9 14 12 15 10 15 14 10 13 13
11 13 11 10 14 3 4 11 4 4 9 10 21 20 20 18 18 20 19 21 19 19 17 15 16 14 13 9 10 15 17 17 17 16 12 6 8 9 11 13 3 11 12 9 11 16 14 9 10
20 18 15 17 17 11 8 10 8 10 8 13 17 18 18 18 19 20 19 17 20 20 17 20 19 17 16 15 10 9 9 11 13 15 20 12 9 11 10 12 11 10 11 11 9 9 15 14 11
16 18 16 20 17 11 2 12 0 8 9 13 15 15 17 16 22 18 19 18 20 23 21 22 20 18 18 16 14 12 12 13 13 14 17 17 17 14 15 14 12 13 9 11 12 13 11 14 10
20 19 16 21 15 7 6 6 3 15 13 14 17 15 15 16 17 22 21 20 21 23 23 24 19 21 19 17 18 19 15 11 13 17 17 19 16 16 19 19 14 12 12 12 12 12 12 9 9
16 17 20 20 11 8 10 5 10 17 16 14 15 16 16 15 14 21 24 23 24 24 26 24 22 22 21 22 20 13 12 11 14 15 18 16 13 10 19 16 15 12 10 6 10 11 13 11 13
19 19 21 16 9 11 15 12 4 13 13 16 15 17 16 17 18 20 23 24 23 24 27 25 20 20 20 19 15 10 5 11 14 12 14 14 8 9 14 20 17 15 11 10 7 8 9 12 13
18 20 21 18 16 15 11 12 12 14 13 13 15 18 17 18 19 23 25 24 25 26 25 24 22 22 18 16 15 15 15 18 12 11 8 6 6 6 12 16 21 16 14 14 13 8 8 10 12
18 19 17 19 15 16 16 19 11 18 15 9 12 16 21 19 18 20 26 25 27 27 26 25 23 24 18 18 20 16 12 13 7 8 9 6 7 9 11 13 17 17 16 16 14 11 9 9 9
18 15 17 16 17 16 16 19 11 17 17 17 11 8 17 18 18 20 21 27 27 27 28 26 26 20 17 16 13 9 6 8 8 9 11 10 9 8 10 11 16 20 19 19 17 14 14 10 10
20 15 19 18 15 12 14 14 15 17 14 15 7 8 7 17 15 19 22 25 28 27 28 27 24 15 17 17 11 12 10 9 5 13 17 16 12 9 11 12 14 15 18 18 17 16 16 16 17
17 15 18 16 15 16 16 10 14 5 16 9 9 12 2 3 15 20 23 28 27 26 25 25 12 9 10 15 15 14 11 11 11 6 12 14 13 10 13 13 15 15 14 13 15 13 14 16 18
13 16 18 14 15 13 16 15 14 15 7 10 10 6 9 6 4 14 28 31 26 26 25 21 15 6 5 9 10 12 4 6 6 5 4 9 9 13 9 11 13 13 12 12 14 13 13 14 16
16 17 12 13 12 13 19 17 12 9 14 13 12 10 6 5 4 9 19 18 24 27 21 17 13 5 4 6 9 9 7 6 7 7 4 8 8 10 11 11 7 9 9 8 9 10 11 12 13
19 18 13 14 14 15 15 13 12 19 12 17 7 6 6 4 4 8 20 17 25 24 18 17 11 6 4 4 5 7 7 7 5 8 7 8 8 8 10 11 11 11 6 5 6 8 8 8 10
19 16 16 18 19 14 13 6 7 9 6 7 8 14 11 11 6 10 18 20 20 20 19 19 11 10 6 4 6 7 7 5 6 7 7 6 7 10 12 10 6 6 4 3 5 6 5 6 5
21 15 14 12 16 16 15 13 6 15 10 17 15 13 11 10 8 14 13 17 18 19 20 21 15 13 8 2 5 9 8 8 5 7 8 9 9 11 11 10 8 5 5 5 4 3 2 2 4
15 17 17 18 12 12 13 3 9 11 10 13 14 13 12 12 10 11 12 14 16 17 21 22 17 22 18 15 10 10 11 10 8 9 11 10 11 10 9 7 6 7 6 6 4 2 2 2 4
17 17 20 12 13 13 13 7 10 3 5 15 14 14 13 13 11 11 12 14 16 18 20 19 16 14 8 11 14 12 11 10 12 12 14 14 13 12 10 8 6 3 4 3 1 4 5 1 2

GFSSGP_925_spd_084.txt.gz
Wind_Speed
10 6 2 3 1 0 3 3 6 9 9 8 13 6 5 4 3 3 16 18 31 29 26 23 22 19 18 17 16 16 16 15 14 13 13 13 14 14 14 13 13 13 13 13 13 13 12 13 15
12 5 3 2 1 3 4 1 12 14 12 16 16 15 12 5 7 12 14 28 34 32 28 24 22 19 18 17 16 17 16 15 14 13 12 12 12 13 13 12 12 12 13 14 13 12 12 13 13
10 7 2 2 1 4 3 1 13 12 16 14 5 6 5 4 12 20 20 34 33 31 27 24 22 20 20 19 17 16 16 15 14 13 12 12 11 11 10 11 12 13 12 13 12 11 11 13 13
8 2 2 1 4 2 8 6 17 14 12 10 10 5 5 10 23 19 32 32 32 29 26 24 22 20 20 19 18 17 16 15 13 12 13 13 12 11 10 10 11 11 12 12 10 10 11 13 13
5 3 4 4 5 4 5 11 17 9 8 11 8 5 4 6 22 36 34 33 32 30 27 25 24 22 20 19 17 16 15 15 13 12 12 12 13 13 12 11 10 10 11 11 10 11 11 11 12
3 3 3 2 6 4 4 9 13 10 13 14 12 9 3 24 33 33 36 35 32 32 29 26 23 22 21 20 18 17 15 13 13 11 10 11 12 12 12 12 11 10 11 12 12 11 11 11 12
5 4 3 7 9 1 6 4 8 12 13 9 14 6 5 13 26 34 34 36 35 32 32 29 27 24 21 19 17 17 16 15 13 12 11 11 11 11 12 12 12 11 10 12 11 12 11 10 11
4 4 5 6 4 4 5 5 8 10 10 16 16 8 6 9 30 32 35 37 34 32 30 29 27 25 24 22 20 18 16 15 14 13 13 13 12 10 10 12 12 12 12 12 12 12 11 11 11
5 2 8 14 9 5 6 7 1 2 9 5 9 8 18 29 29 27 26 22 25 26 28 27 26 24 22 21 20 18 16 14 14 13 12 11 12 12 12 12 12 13 13 13 12 13 12 12 12
6 4 11 17 20 11 9 11 10 6 6 3 9 13 32 28 28 24 24 21 23 25 27 27 26 25 23 22 20 19 18 17 15 14 13 12 12 12 13 14 13 13 13 13 13 14 13 11 13
6 7 11 16 14 13 15 8 6 11 5 8 21 24 19 21 20 23 25 28 29 30 27 27 26 25 24 22 20 19 18 17 16 15 14 11 9 11 15 14 14 14 15 15 15 15 15 14 13
6 9 6 7 3 4 9 7 6 13 10 14 23 29 21 17 16 19 23 26 26 30 30 28 26 27 25 22 20 18 18 17 16 15 14 13 12 12 13 16 17 16 15 16 16 16 15 14 13
5 6 11 16 13 5 11 14 11 17 9 18 20 22 22 19 17 22 26 30 33 32 32 31 28 26 25 23 21 18 16 17 16 15 16 12 10 11 12 14 15 16 16 16 17 16 14 14 14
6 8 14 14 14 8 11 7 7 12 12 20 22 20 20 22 21 22 23 25 30 36 35 32 31 27 27 25 22 22 17 18 18 17 19 16 11 12 14 14 15 17 19 16 16 17 15 13 12
6 10 14 16 7 8 7 8 8 8 24 23 22 21 20 20 27 27 29 30 34 33 37 34 33 30 26 24 23 24 19 18 19 20 18 18 16 13 13 14 15 15 17 19 19 16 17 17 14
7 3 6 8 9 11 2 14 9 16 22 22 23 21 20 21 25 33 32 34 37 35 34 36 35 33 27 26 24 26 21 20 19 22 21 17 19 19 19 17 16 17 18 18 19 17 16 17 17
7 6 12 15 12 8 13 11 7 15 20 21 22 21 21 20 19 30 31 35 40 41 37 36 36 36 33 27 23 22 22 23 21 20 20 18 17 16 17 21 20 19 20 21 21 20 18 16 15
7 7 7 11 20 12 13 10 5 14 20 23 22 21 21 21 24 30 29 33 39 43 41 40 38 36 30 24 22 19 19 20 22 21 21 19 18 18 17 18 19 22 22 21 21 21 19 19 17
8 9 13 18 22 4 13 9 7 11 14 17 20 20 21 23 21 28 27 32 35 40 42 41 39 35 30 26 24 22 24 22 20 18 16 17 17 18 18 19 18 21 23 23 21 19 17 16 15
12 13 18 19 18 7 8 8 9 8 9 12 20 20 23 19 14 17 26 30 36 40 44 41 40 36 33 30 29 25 25 19 18 12 15 16 19 18 18 17 18 21 23 21 19 18 14 12 12
13 8 15 14 19 3 1 8 7 8 3 6 10 22 23 22 19 16 19 28 34 37 39 41 41 37 36 31 29 22 17 18 16 17 17 17 17 19 16 14 18 24 23 23 21 17 14 12 11
10 17 16 16 6 6 4 5 8 8 10 7 11 12 18 21 18 17 19 24 35 37 39 39 38 37 35 31 30 27 20 17 19 18 19 18 18 17 15 14 19 23 26 25 25 21 19 14 13
12 16 17 17 5 3 7 3 8 4 8 6 7 13 19 22 20 19 21 30 31 34 36 36 37 35 33 31 29 23 18 17 15 15 19 21 20 17 16 15 14 19 26 24 19 18 19 18 17
13 6 1 4 4 3 5 4 12 5 6 5 5 10 18 21 20 22 18 23 27 28 31 34 33 35 31 29 26 19 16 14 16 13 20 24 24 18 17 17 17 16 21 22 20 19 20 19 19
3 5 5 3 3 7 4 1 14 11 7 8 10 12 19 23 23 12 16 17 25 29 26 30 33 32 29 27 20 17 18 15 15 12 13 16 20 20 21 21 19 16 14 14 14 15 17 17 17
8 8 6 7 4 7 6 6 15 11 19 16 8 11 9 13 14 14 17 18 26 28 29 30 31 24 20 18 15 14 11 6 17 14 14 17 19 19 19 18 17 14 14 14 13 13 13 14 14
10 4 9 6 2 3 3 9 10 8 1 11 9 8 9 10 12 16 16 21 25 26 29 34 29 21 18 15 13 11 5 7 22 9 13 15 13 14 15 15 15 15 17 16 13 13 12 12 12
8 4 1 2 3 7 5 5 6 7 4 8 8 10 6 11 14 12 13 17 21 24 29 29 24 19 17 17 16 14 10 19 11 9 12 11 10 11 12 13 13 15 15 11 9 10 11 11 11
2 3 2 3 5 6 2 6 4 9 3 8 6 7 11 12 13 13 13 19 22 24 28 26 22 22 21 18 16 13 12 12 8 9 8 9 9 11 12 12 13 13 14 12 11 9 9 10 9
11 11 7 6 7 3 5 5 4 6 4 10 9 7 9 8 9 12 13 19 20 21 24 25 24 22 19 19 14 13 12 11 11 9 11 8 9 10 14 13 12 12 12 13 12 11 11 10 9

GFSSGP_925_spd_087.txt.gz
Wind_Speed
12 10 4 1 2 2 3 2 4 3 2 1 6 3 5 2 4 3 7 19 28 28 28 25 22 20 18 17 17 18 17 15 15 14 14 14 15 15 15 15 15 15 13 13 15 14 14 16 16
15 10 1 2 2 3 3 1 5 2 6 9 7 5 4 2 3 7 13 14 29 30 28 25 21 18 18 16 16 16 16 14 13 12 12 13 13 13 12 13 14 13 13 13 14 14 15 16 15
17 6 2 0 1 2 4 4 8 8 10 3 4 4 3 3 4 14 6 28 31 29 28 25 22 20 18 17 16 15 15 14 13 12 12 13 12 12 11 12 13 14 14 13 12 13 14 15 16
7 2 2 2 3 6 5 9 9 12 4 4 4 6 4 6 17 16 26 34 32 30 27 24 22 20 19 18 17 16 15 14 13 12 12 12 13 12 13 12 12 12 13 13 11 12 14 15 16
1 1 2 1 4 4 1 12 13 8 5 6 3 3 3 14 10 23 33 36 35 31 28 25 23 22 21 18 17 16 15 14 12 12 11 12 12 12 12 13 12 11 12 11 11 12 14 13 15
2 1 3 4 4 3 2 10 7 6 7 7 5 4 3 14 25 28 30 32 31 33 29 25 22 22 22 19 18 17 16 15 13 12 11 11 12 11 12 11 12 12 10 10 11 12 12 13 14
1 2 1 4 2 2 4 6 5 9 12 5 12 5 2 8 29 30 29 29 29 29 28 26 23 21 22 21 20 19 17 16 14 12 11 10 11 11 11 12 11 11 11 10 11 11 12 13 14
3 1 5 4 5 6 4 3 7 12 11 12 9 6 5 11 27 26 23 24 26 28 27 27 26 24 23 22 20 18 16 15 13 12 11 11 10 9 9 10 11 11 11 11 11 11 12 13 13
4 2 3 4 4 6 2 5 5 2 12 5 9 6 9 27 28 25 24 21 22 25 28 28 28 26 25 23 20 18 17 16 15 12 11 12 12 10 8 10 11 11 11 12 11 12 12 13 13
5 4 7 8 9 9 9 6 7 6 7 4 4 5 28 32 30 25 23 22 23 25 30 30 29 28 25 23 21 20 18 16 15 15 14 13 13 12 11 11 11 11 12 12 12 13 11 12 13
6 5 8 12 11 7 11 10 3 8 5 7 15 17 21 27 26 24 25 30 36 36 32 32 31 28 28 26 23 20 19 18 17 16 15 13 12 12 13 12 11 13 13 13 13 13 13 12 12
3 7 9 8 3 7 8 11 6 11 10 13 16 25 21 23 20 24 26 26 26 27 35 32 31 30 28 26 24 22 22 20 19 18 16 15 14 12 13 14 14 14 15 15 15 14 14 13 12
7 6 5 9 9 7 4 13 7 13 4 14 17 20 20 21 21 28 30 29 29 30 33 32 31 30 29 26 23 22 22 22 20 18 18 17 16 15 13 13 17 18 17 16 16 16 16 16 14
4 6 7 7 15 5 6 6 7 10 9 14 19 21 19 20 20 25 27 27 28 34 35 32 32 30 29 29 27 26 20 18 20 19 19 18 15 14 18 15 16 17 18 17 16 17 16 14 15
3 8 8 7 2 2 8 3 10 9 16 19 20 19 20 18 23 24 31 31 36 36 37 35 34 32 30 30 28 24 18 19 22 22 17 19 17 14 17 17 18 18 18 19 18 17 16 16 15
2 4 5 4 10 6 8 9 19 13 21 19 19 19 19 20 22 27 29 30 37 37 36 37 36 34 32 32 29 26 24 20 22 21 18 18 17 18 17 16 18 18 19 19 23 21 18 19 19
5 4 5 12 7 1 5 13 18 8 23 21 20 19 18 15 15 26 29 32 34 40 39 38 36 37 35 32 31 29 28 21 21 19 20 19 19 22 23 20 19 17 20 21 22 22 20 18 18
7 5 5 7 6 8 12 12 9 9 14 19 20 17 17 17 24 29 31 32 37 38 39 39 39 38 36 32 29 29 29 25 22 21 19 20 20 18 20 19 19 21 21 23 23 23 21 19 19
5 4 7 9 10 2 12 12 20 10 12 16 13 15 17 21 20 23 27 33 33 36 35 38 37 39 37 34 30 28 31 27 24 23 21 20 22 20 20 18 19 21 24 26 26 25 23 20 16
5 5 9 8 14 6 10 14 11 6 19 15 17 17 20 20 12 17 25 30 34 37 36 37 40 39 40 37 35 28 30 26 23 19 17 20 18 19 18 18 19 20 23 26 28 26 21 20 16
6 6 11 10 10 6 7 7 7 6 6 8 12 17 19 21 17 17 19 32 32 33 38 40 42 41 41 38 32 23 17 18 16 22 21 17 17 18 16 16 17 17 20 24 26 25 24 19 17
8 9 12 11 2 9 5 7 6 6 8 7 11 17 20 20 15 16 19 22 33 37 35 40 39 39 40 38 33 30 23 21 21 20 18 16 15 15 13 15 14 15 21 21 23 24 20 16 15
13 4 8 9 6 1 3 2 7 4 9 10 10 13 20 24 21 21 22 30 38 33 35 36 35 35 38 38 33 31 28 21 16 10 11 13 14 16 15 15 13 15 19 23 24 23 20 19 15
8 3 6 5 2 3 6 7 5 5 8 6 6 10 10 15 19 21 26 26 28 28 30 33 34 32 35 34 31 28 25 19 12 10 8 12 17 17 17 16 15 13 18 24 25 23 21 21 20
4 6 5 5 3 8 7 3 8 4 7 12 15 13 8 12 16 14 14 15 24 28 31 32 30 26 30 28 25 20 12 6 6 13 10 10 14 19 22 17 15 15 16 20 24 22 21 22 21
6 9 6 5 6 10 1 6 7 8 11 9 13 13 6 8 10 12 15 15 25 28 28 28 28 25 27 26 17 13 10 8 8 8 14 11 13 15 17 17 17 16 16 19 23 23 21 20 19
6 5 7 4 2 2 4 8 10 7 12 8 12 10 11 10 10 12 13 17 23 25 26 30 31 28 26 18 18 15 14 13 15 14 14 13 12 12 12 15 11 13 15 15 14 14 13 15 17
7 6 1 1 2 4 5 5 6 11 10 10 4 9 4 5 8 10 11 13 18 21 24 30 32 30 23 20 19 19 16 12 18 11 10 11 10 10 10 10 8 11 12 12 13 13 14 13 14
0 3 2 6 4 5 4 7 7 6 6 6 7 9 10 11 11 9 9 12 17 21 27 30 29 26 23 21 19 21 11 12 13 13 11 11 9 9 9 10 10 10 11 12 11 9 9 11 11
7 9 6 5 6 3 3 7 3 5 3 10 11 8 13 14 13 12 10 13 14 17 24 28 28 24 22 20 19 16 13 14 14 13 11 11 8 9 10 9 9 8 8 9 9 8 8 10 11

GFSSGP_925_spd_093.txt.gz
Wind_Speed
8 6 2 2 2 2 2 2 3 1 2 2 9 3 5 1 3 0 5 13 23 27 24 23 22 21 19 17 17 18 17 16 16 15 15 14 14 13 14 13 14 13 14 13 12 12 13 13 13
10 5 1 2 3 4 3 2 4 2 4 9 7 7 3 2 2 7 14 15 24 27 26 24 25 23 22 20 18 17 16 15 15 15 14 13 13 12 13 13 13 12 14 13 12 13 12 12 15
10 3 1 2 2 4 3 2 0 4 10 3 3 1 2 3 2 16 5 20 24 25 24 24 26 25 23 22 20 18 16 14 14 14 15 13 12 12 11 13 12 11 13 12 12 13 13 13 13
6 3 3 1 4 1 2 1 3 9 3 1 5 6 4 5 13 11 21 23 21 20 21 22 24 23 22 22 21 20 17 15 14 13 12 12 11 10 10 12 11 12 12 12 13 12 13 13 13
4 2 1 3 3 5 3 4 7 5 3 2 3 5 3 5 8 17 22 25 25 22 20 20 22 21 20 20 20 20 18 17 14 14 13 12 10 10 10 11 11 12 12 12 11 12 13 13 14
3 2 3 9 9 1 0 7 8 6 2 3 1 7 5 8 15 20 22 22 21 23 21 19 21 20 19 18 18 18 16 15 14 13 12 11 10 10 9 9 10 9 12 11 12 12 12 14 13
1 0 2 3 9 7 1 6 8 7 4 5 4 6 4 10 11 17 21 20 21 21 20 17 18 18 19 18 17 17 16 15 13 13 12 11 10 9 10 9 9 10 10 11 13 12 12 12 12
3 1 2 1 7 6 3 6 6 9 6 3 9 5 6 15 19 18 17 20 21 20 21 21 18 18 18 17 18 18 17 15 14 13 12 11 10 9 8 9 9 9 10 11 13 12 12 11 11
1 3 2 3 4 7 4 4 4 3 7 7 11 4 2 23 24 22 18 17 18 19 20 20 19 18 17 17 17 17 17 16 14 13 13 11 10 9 9 10 10 10 10 11 12 12 11 11 10
4 3 4 3 7 8 14 11 10 8 12 9 7 5 13 23 25 25 24 22 22 22 22 21 21 20 19 17 16 16 15 14 14 14 12 11 10 9 9 9 10 10 10 12 12 12 12 11 10
6 5 6 8 12 13 12 15 5 11 11 13 16 13 17 19 22 23 25 28 30 26 22 23 22 21 20 17 17 14 14 14 15 14 13 12 11 10 9 9 9 9 10 10 12 11 11 12 12
6 12 13 6 7 5 10 12 4 15 21 10 13 20 22 22 20 23 25 26 25 25 25 23 22 22 21 17 19 18 18 16 15 15 15 13 11 11 11 11 10 10 11 11 11 12 12 12 12
12 14 11 13 12 9 10 12 10 15 13 2 11 19 22 22 24 25 23 24 25 25 24 23 23 23 22 21 22 24 20 19 18 15 15 14 13 14 10 13 11 11 10 12 12 10 11 12 11
8 11 17 11 12 8 8 4 5 4 9 10 15 20 24 26 27 28 25 25 26 26 25 23 24 24 24 26 22 20 17 16 18 15 16 19 17 15 13 11 11 12 12 11 11 12 11 12 12
9 13 16 15 9 11 6 8 6 7 4 12 17 21 21 24 28 30 31 28 29 28 25 25 25 24 25 25 22 21 20 17 19 19 22 20 20 17 13 12 12 13 14 15 13 11 11 12 12
4 4 12 12 4 1 4 17 9 3 7 10 18 17 18 25 26 29 29 30 27 26 27 25 24 24 24 24 24 21 19 18 18 19 22 22 20 19 17 13 13 12 13 15 14 15 12 13 13
6 13 13 13 1 3 3 9 15 7 9 13 16 17 16 19 22 30 29 28 27 27 26 26 26 26 25 24 23 22 20 18 17 18 21 23 22 20 20 17 14 16 14 14 14 17 18 14 14
12 13 11 12 8 5 12 15 17 14 13 16 14 15 19 19 27 28 28 27 26 27 27 27 28 29 26 21 21 18 19 18 17 17 19 22 23 22 21 20 19 19 14 14 15 16 16 17 16
16 12 12 5 9 11 17 15 14 20 17 17 13 16 20 24 17 25 28 27 27 27 28 29 29 30 26 23 22 20 22 20 18 18 17 18 21 21 21 19 20 21 20 19 16 18 17 16 14
15 16 13 9 11 6 12 20 19 16 11 13 11 15 20 17 18 21 29 29 30 31 32 29 31 30 31 27 25 17 18 16 16 18 20 19 21 21 21 22 20 20 18 20 19 18 16 16 17
18 19 12 11 8 9 11 11 8 13 13 11 11 11 13 19 22 22 24 31 32 33 33 34 35 31 34 33 22 15 12 16 16 18 19 25 23 22 22 22 24 21 19 19 20 21 20 19 17
18 15 16 9 8 11 2 13 11 13 10 10 14 8 13 16 19 20 23 28 34 32 31 33 31 33 31 33 26 25 24 21 19 17 17 21 22 23 21 24 22 23 17 19 19 19 23 22 20
16 7 10 10 9 4 13 6 9 8 12 12 10 11 12 15 18 21 25 32 38 32 40 32 35 34 32 29 30 28 23 19 17 15 17 15 13 18 19 20 20 20 18 17 17 17 19 21 20
14 8 2 2 4 7 14 8 7 7 7 6 9 10 13 15 13 17 23 28 31 36 31 31 33 34 32 31 30 28 26 18 14 14 12 10 7 10 16 17 19 17 16 15 15 16 17 17 20
10 8 5 6 5 9 4 6 7 16 15 16 14 10 10 12 12 12 17 20 27 34 31 31 32 30 31 29 28 27 27 22 20 16 16 13 11 14 19 20 21 21 19 14 13 15 16 16 17
12 12 6 5 7 11 3 7 3 9 14 12 12 13 15 15 14 15 16 19 27 33 31 31 31 28 30 30 27 24 24 22 17 14 20 22 16 19 18 20 21 19 17 15 14 15 16 15 16
3 4 10 3 3 5 5 6 10 7 11 6 9 14 16 16 12 12 13 19 27 31 31 31 29 28 27 27 25 24 25 24 18 17 16 15 12 13 14 13 14 15 14 15 14 15 18 17 14
4 7 4 4 6 13 13 16 11 16 15 16 15 14 13 12 5 9 13 15 23 27 25 25 26 27 27 26 24 24 25 23 19 17 17 13 8 11 11 10 9 10 13 15 15 14 16 19 18
4 4 2 4 1 12 14 13 4 9 10 12 11 11 11 8 3 8 11 15 19 21 23 23 24 24 24 24 23 23 24 21 18 15 15 10 9 9 8 8 8 8 8 12 14 14 14 17 18
1 4 2 6 6 8 8 17 1 6 6 8 10 10 8 5 1 5 10 13 16 19 23 25 26 26 26 24 22 23 21 18 16 14 15 9 8 8 8 9 8 9 10 11 11 12 12 13 13

GFSSGP_925_spd_096.txt.gz
Wind_Speed
7 6 3 5 6 6 11 12 8 11 8 4 4 1 2 4 3 4 11 16 22 23 24 24 24 22 19 18 17 17 16 17 16 15 14 12 12 11 11 11 10 10 11 11 12 12 11 12 12
8 5 4 4 6 10 11 8 13 11 9 6 4 3 3 6 4 10 16 16 22 23 23 23 25 23 21 21 20 18 17 15 15 14 13 12 11 11 10 11 11 11 11 11 10 11 12 11 11
8 2 4 5 3 11 10 10 9 8 5 2 2 5 1 4 4 16 18 23 22 20 20 22 25 23 21 20 20 18 17 16 16 14 12 11 11 10 11 10 11 12 10 10 11 11 11 13 11
7 4 5 5 11 11 9 8 6 6 3 1 1 5 5 2 12 12 23 24 23 21 19 20 24 22 20 20 19 17 16 16 15 16 13 11 10 9 10 11 10 11 10 10 12 11 12 11 12
6 4 5 6 11 8 7 6 1 2 3 3 2 4 5 10 11 19 24 23 23 21 19 19 22 22 20 19 18 16 15 14 14 14 14 12 10 9 10 10 11 10 11 11 10 12 12 11 11
5 4 3 6 10 8 7 5 2 2 3 4 2 4 6 11 16 20 22 23 22 21 20 22 22 19 19 19 18 17 15 14 13 14 13 12 11 10 10 11 11 11 11 11 10 11 12 12 12
8 8 5 5 6 7 9 6 3 4 0 1 4 3 6 12 16 20 21 21 20 20 20 20 20 20 18 18 18 18 16 15 14 13 13 12 12 11 10 11 10 11 10 11 11 11 12 12 11
5 4 3 1 5 6 7 6 5 5 1 6 8 3 6 15 17 19 20 20 20 20 20 20 19 19 18 18 17 17 16 15 14 13 13 12 11 11 11 11 11 10 10 11 11 12 11 10 9
7 6 5 1 3 4 5 9 5 3 6 8 8 3 5 20 20 20 21 21 21 21 20 20 20 19 18 16 16 16 15 14 13 12 12 11 11 10 10 10 11 10 11 11 12 11 12 11 10
8 8 6 4 5 8 10 10 11 6 7 10 10 8 13 24 21 22 22 22 24 23 22 21 20 20 19 16 15 16 15 14 13 14 12 11 8 9 8 10 11 11 11 11 12 12 11 11 11
6 13 8 11 10 12 13 12 8 8 10 11 14 14 17 26 24 21 23 24 25 24 22 22 21 20 20 18 18 17 15 15 15 12 12 10 10 9 9 9 9 10 12 12 12 11 12 13 12
11 15 13 17 15 16 15 16 14 8 13 2 10 18 21 23 22 24 23 23 24 24 24 22 21 21 22 20 19 18 18 17 16 13 14 12 12 11 10 10 10 10 13 12 14 14 12 12 12
15 19 17 17 14 13 16 17 17 17 9 7 9 20 22 22 23 26 26 23 24 25 24 23 23 23 23 20 19 18 16 15 15 14 15 14 12 10 9 9 11 12 12 13 13 12 13 12 13
14 15 17 16 19 14 17 18 13 15 3 10 11 17 19 22 23 27 27 26 26 25 25 24 24 24 22 22 18 18 16 15 16 15 15 16 13 11 9 9 11 13 12 13 13 14 13 13 13
13 17 18 19 17 18 15 21 17 14 2 9 12 13 16 19 25 28 30 28 27 25 25 26 25 24 23 22 19 18 18 17 15 16 15 17 16 15 12 9 10 12 12 12 12 13 13 14 14
16 13 14 16 13 11 10 17 14 4 6 7 8 11 15 20 23 29 29 28 28 26 26 26 25 25 24 22 20 19 18 18 17 16 16 17 18 17 15 12 11 12 13 14 14 13 14 15 15
15 15 18 15 10 6 12 18 16 5 10 13 14 12 14 18 22 29 30 30 30 28 26 26 25 25 25 22 19 19 17 18 17 17 17 17 18 18 18 14 12 12 13 13 14 14 15 13 15
20 19 19 17 17 14 15 19 15 19 18 17 16 15 12 19 24 29 30 30 30 31 28 27 25 24 24 21 19 18 19 19 19 19 18 17 20 19 17 17 13 14 15 15 15 15 16 16 16
23 23 23 19 10 17 15 20 17 16 21 19 19 14 14 19 18 28 30 30 31 30 31 30 28 25 24 23 22 20 22 21 20 19 17 17 17 18 18 17 15 16 17 17 15 16 16 16 16
24 24 24 22 16 20 18 21 16 17 22 17 21 14 14 13 18 22 31 32 33 34 33 32 30 28 27 24 22 20 20 20 20 20 18 18 18 18 17 17 17 17 17 17 18 18 17 18 17
25 23 23 24 20 18 17 22 21 15 16 16 17 15 13 15 20 21 24 34 33 34 34 33 32 30 29 25 22 18 15 16 17 19 19 20 20 18 18 17 17 18 19 19 20 20 20 20 18
21 20 24 22 21 17 17 14 17 13 17 14 15 13 13 14 18 20 22 29 34 33 32 32 32 32 30 29 24 24 22 20 20 18 18 18 20 20 19 19 19 19 19 19 19 20 21 21 19
19 19 22 20 20 19 23 12 13 13 14 15 17 15 13 14 16 20 23 30 33 35 37 39 42 39 32 31 28 26 25 22 18 17 16 19 17 20 20 20 19 19 19 21 19 17 19 21 22
14 15 15 14 14 15 16 18 15 13 8 13 16 13 11 9 12 15 20 25 29 34 36 34 31 34 36 33 32 28 23 22 17 18 17 15 16 16 19 20 18 18 18 19 19 18 18 19 20
10 14 12 13 13 13 15 13 8 10 14 8 12 13 9 7 6 11 15 18 27 34 36 32 32 32 33 33 31 29 26 23 21 19 16 14 15 12 15 17 16 17 18 17 16 15 16 17 19
7 14 10 14 10 9 20 10 11 14 9 5 5 7 9 13 13 11 14 16 25 33 36 34 33 32 33 32 30 27 25 23 22 17 12 14 17 18 12 11 13 16 16 16 16 15 16 16 18
6 6 9 10 12 10 13 22 17 13 12 7 11 10 10 11 13 16 16 13 21 29 35 36 33 33 33 31 27 25 24 23 19 14 10 11 12 11 12 12 12 13 15 16 17 17 15 15 16
10 4 8 6 11 14 9 17 13 14 17 10 14 11 11 10 11 11 11 12 17 25 29 33 32 33 33 31 27 25 24 22 17 14 13 11 9 9 10 13 13 12 13 15 16 16 14 15 16
7 12 11 13 8 15 11 11 11 12 10 13 10 11 11 10 9 5 3 6 12 18 24 27 27 29 30 30 28 26 25 22 18 15 14 13 11 8 10 10 11 12 13 13 16 15 14 14 14
6 5 9 10 11 13 14 17 10 1 6 7 8 8 8 6 10 4 4 8 12 17 17 20 21 22 22 23 24 24 23 22 20 17 15 14 11 9 9 10 11 11 11 11 12 13 13 13 15

GFSSGP_925_spd_102.txt.gz
Wind_Speed
9 8 10 6 4 7 17 20 17 17 15 13 9 11 12 20 9 5 23 31 31 28 25 24 22 20 18 17 16 17 16 16 14 13 12 12 11 11 10 10 10 11 12 13 13 12 10 10 13
10 11 8 5 6 7 13 17 15 11 8 7 12 10 12 19 15 19 19 33 29 28 26 22 22 20 18 16 16 15 16 16 15 13 12 12 11 10 10 9 10 11 12 12 13 13 12 11 13
13 17 7 5 5 12 12 12 12 13 12 13 14 15 15 13 18 13 26 32 30 26 25 24 24 20 18 16 15 14 14 14 13 12 11 11 10 10 9 10 11 12 11 11 11 12 11 11 11
11 8 6 7 10 14 15 10 16 17 16 8 15 13 14 16 16 26 24 29 29 26 25 24 24 20 18 16 14 14 12 12 12 11 11 11 10 10 10 10 10 11 10 10 10 10 12 11 12
17 6 10 6 6 15 16 9 11 15 17 11 17 16 14 17 22 24 24 23 27 32 28 26 24 21 20 18 15 14 14 12 11 11 10 10 10 10 11 10 10 10 9 10 11 11 12 12 12
7 5 6 10 5 16 10 9 17 16 15 10 15 17 14 18 20 21 21 18 31 32 27 25 23 21 20 18 15 13 12 12 11 10 11 9 9 10 11 10 10 10 10 11 10 11 12 12 11
14 6 4 21 19 7 11 4 7 14 15 14 8 18 13 15 20 22 20 16 33 29 28 26 21 19 18 17 16 14 12 12 11 11 11 11 10 10 10 11 11 11 10 9 11 11 11 11 11
14 14 5 11 20 13 3 13 9 11 13 13 13 9 17 20 23 23 21 17 31 30 27 26 22 19 18 16 15 15 12 10 11 11 10 10 11 11 12 11 11 11 10 10 11 11 11 12 10
20 15 9 6 15 24 14 9 9 9 14 7 3 15 24 32 29 24 23 19 15 32 28 27 23 21 20 18 16 15 14 12 12 11 12 12 12 12 12 12 11 12 11 12 11 11 13 13 9
15 15 15 22 24 15 21 9 9 8 17 14 10 18 29 35 32 27 22 23 21 22 28 28 27 24 22 18 18 16 14 13 13 14 15 16 16 15 14 13 14 12 11 12 12 13 13 13 10
22 17 20 20 39 17 14 10 8 13 6 26 17 10 22 23 26 25 26 25 24 22 21 29 31 30 23 20 21 18 19 18 17 17 15 16 13 16 16 17 17 15 14 13 14 14 14 14 18
21 22 20 18 20 22 20 16 12 12 14 15 29 31 23 21 20 20 24 27 27 26 22 23 30 31 25 21 23 23 23 21 21 19 16 15 18 18 17 17 19 17 16 17 17 17 15 18 15
22 21 20 19 19 19 19 19 16 14 12 4 31 32 24 20 18 22 24 26 27 27 26 26 28 33 27 23 23 21 23 24 23 24 20 19 18 16 13 17 15 19 18 16 20 21 18 16 18
21 23 23 22 22 21 21 22 19 18 15 4 9 22 21 19 20 21 24 25 27 27 27 26 29 29 23 23 19 20 21 25 27 27 24 23 17 18 14 13 15 16 15 16 20 19 20 19 18
22 23 20 20 21 22 21 21 22 21 18 14 14 11 18 18 23 19 25 25 28 30 28 30 31 29 25 23 17 18 15 14 23 19 17 25 19 13 12 12 13 14 16 19 18 17 16 12 11
23 25 21 22 23 23 20 19 20 20 17 12 5 15 15 19 20 28 29 27 29 31 31 29 30 30 30 25 22 16 19 14 11 16 16 21 20 12 14 12 10 15 16 18 18 17 18 12 16
19 21 24 24 22 22 20 19 17 15 14 10 25 13 14 17 19 29 33 32 31 32 33 31 32 32 33 29 24 24 22 18 18 14 16 16 18 21 14 15 12 10 17 19 18 19 19 17 17
20 20 21 23 21 23 18 19 18 13 19 19 11 11 11 13 18 27 36 35 33 33 34 33 32 32 32 28 27 26 22 23 21 20 21 22 23 22 19 19 15 13 19 23 20 21 22 21 15
23 25 26 23 22 23 24 24 19 17 15 17 16 13 14 15 13 30 37 37 36 35 36 36 34 33 33 30 29 26 26 25 24 22 24 25 26 25 22 20 18 17 22 18 26 20 21 20 21
20 23 24 25 22 21 22 24 24 22 20 18 20 17 15 16 17 13 31 37 38 38 39 38 36 34 35 31 30 25 26 25 25 24 22 23 25 22 22 23 23 20 22 20 15 22 19 23 19
19 17 20 21 20 21 22 25 22 24 22 20 23 20 15 17 21 15 24 34 37 39 42 41 39 36 35 31 29 26 24 24 27 25 23 27 26 21 21 25 26 22 22 20 23 19 20 17 16
20 18 18 18 18 18 19 18 16 19 20 22 23 24 23 19 19 17 25 24 36 40 40 41 40 37 36 35 31 30 25 21 24 25 24 29 27 23 24 25 25 26 22 24 20 21 23 22 20
18 17 17 18 19 20 22 14 14 16 15 15 24 26 17 18 19 18 25 29 38 38 41 40 40 38 37 37 33 31 27 23 24 26 27 25 27 29 25 25 21 21 23 23 21 20 20 22 22
13 15 15 18 17 14 17 3 9 12 14 15 18 19 29 18 18 20 25 32 32 33 36 37 39 38 37 39 34 34 31 25 23 25 21 21 21 20 21 20 17 22 20 20 20 19 21 23 20
14 14 12 13 12 13 12 7 11 11 16 8 11 22 27 20 15 16 25 24 28 32 35 36 37 36 38 38 38 33 32 31 24 24 21 20 16 16 17 17 23 21 26 23 19 19 19 20 18
14 13 8 17 14 18 17 9 10 12 4 9 13 21 20 17 11 3 26 22 25 32 32 36 37 37 39 37 38 31 32 31 27 20 18 17 15 18 15 18 18 20 22 19 17 18 17 19 21
16 15 18 13 17 15 10 10 17 11 5 2 14 20 20 29 14 13 3 25 28 33 36 37 37 36 37 37 36 39 32 30 30 23 24 22 18 17 18 16 17 18 19 19 15 16 15 16 18
19 14 15 12 14 17 8 9 5 10 14 12 15 15 16 26 28 29 8 2 25 33 37 38 38 39 38 38 37 36 35 37 26 27 25 22 21 17 19 19 18 18 16 15 15 15 15 15 18
10 11 10 7 8 9 15 6 12 20 21 24 23 24 23 18 36 43 10 17 9 23 32 35 35 36 38 38 36 35 38 31 30 25 27 23 22 22 20 20 18 18 17 13 14 14 13 14 15
11 5 8 3 6 9 10 8 14 15 19 13 16 19 11 19 33 14 15 16 25 17 25 33 36 35 37 36 36 35 30 30 31 25 26 23 22 20 18 17 16 15 16 15 15 14 13 14 12

GFSSGP_925_spd_105.txt.gz
Wind_Speed
4 7 4 4 2 3 7 7 5 7 5 4 8 13 10 12 8 4 32 35 33 35 33 29 25 22 18 19 19 17 16 16 16 15 15 16 15 15 14 12 13 14 15 14 12 11 10 11 11
5 5 8 3 3 2 3 8 8 7 6 12 17 19 16 17 13 17 22 36 35 37 33 29 26 22 20 19 18 17 17 16 16 15 15 14 14 14 12 12 13 14 14 14 14 12 11 13 13
6 8 2 3 3 4 5 8 11 10 10 17 10 11 10 17 24 8 38 37 35 32 29 29 26 23 20 18 17 17 16 16 15 15 15 15 14 13 13 13 13 14 14 14 14 13 12 13 13
6 3 2 8 22 17 7 12 15 12 15 17 16 8 11 28 11 27 42 38 32 32 28 28 26 24 22 21 19 17 16 15 14 14 14 14 14 14 14 14 15 12 14 13 13 13 12 11 11
9 4 5 8 8 8 16 11 17 13 17 20 17 17 13 25 38 45 44 38 37 35 28 29 25 23 22 21 20 19 18 17 15 14 14 13 13 14 14 14 13 12 13 12 13 12 12 12 12
4 2 6 10 17 18 21 8 18 17 17 20 17 13 7 27 28 39 41 40 40 39 34 31 27 24 22 20 20 19 17 16 15 14 14 13 13 14 14 14 14 13 14 12 14 13 13 12 12
9 4 3 9 13 19 18 14 12 14 16 15 20 11 8 14 29 30 30 36 42 36 37 34 29 25 23 20 18 18 18 16 14 14 13 12 12 13 14 14 14 13 15 13 13 13 13 12 12
7 4 7 9 12 12 18 12 18 16 13 22 22 7 13 14 34 29 41 40 38 36 35 34 31 26 23 21 18 17 16 16 16 15 14 13 12 12 13 13 14 13 13 15 14 12 12 12 13
15 6 11 10 4 17 34 9 16 13 17 15 4 9 22 32 37 32 33 34 32 32 35 33 32 28 24 22 20 19 16 15 15 14 13 13 14 14 14 13 14 13 14 13 13 13 13 14 12
9 9 11 5 17 17 31 22 24 3 11 10 14 23 32 29 27 24 25 30 32 32 33 34 30 28 24 20 20 20 18 16 16 15 16 15 14 14 14 14 14 14 13 14 13 14 14 15 12
11 13 13 17 16 17 16 22 19 4 13 12 15 20 23 22 19 19 18 30 33 37 35 36 32 29 28 23 22 22 19 18 17 17 16 15 14 15 14 16 17 16 14 16 15 15 16 17 13
10 14 13 11 20 7 17 13 20 2 7 17 15 24 24 23 16 18 19 23 31 35 35 39 34 33 31 29 25 24 22 20 19 19 17 18 18 20 17 19 17 18 18 17 17 18 17 16 14
9 12 13 12 13 22 17 11 12 15 17 19 17 15 22 24 20 26 26 28 26 32 35 38 39 36 35 32 31 26 25 23 21 21 19 21 20 20 20 21 20 16 18 18 18 19 18 17 16
9 16 14 13 15 14 15 15 8 16 1 18 16 22 23 23 22 27 28 27 31 31 33 38 42 38 37 35 34 30 26 27 26 27 22 22 20 20 21 23 19 18 20 21 22 21 18 19 17
13 13 14 13 16 20 20 14 10 14 15 18 19 16 19 21 27 25 34 33 34 36 31 42 44 39 36 37 33 32 31 28 23 26 25 24 20 20 23 25 25 22 23 20 20 23 22 17 23
12 8 11 13 17 21 12 14 16 12 10 9 25 26 22 22 26 33 36 37 40 40 39 38 40 42 36 36 26 33 29 28 34 36 26 28 26 20 19 20 19 18 22 23 21 24 22 18 14
6 10 14 19 17 14 9 11 10 8 9 8 20 23 27 23 25 34 40 40 44 46 45 39 39 43 37 37 32 29 28 22 27 31 28 23 28 22 25 19 16 16 16 20 20 19 23 21 18
8 10 12 16 18 19 16 11 11 10 10 7 10 8 20 26 27 35 42 42 44 45 47 44 41 42 39 36 32 28 25 26 23 24 25 24 28 28 26 21 21 17 19 19 19 21 20 21 23
15 16 17 13 13 14 14 12 12 11 8 9 9 10 16 22 25 39 43 41 39 42 44 46 43 42 41 36 33 32 30 29 25 24 26 27 29 32 28 28 24 22 18 22 23 22 23 23 21
16 12 11 12 11 9 9 10 11 12 9 8 8 9 7 7 8 24 35 39 42 44 44 44 45 45 43 35 34 27 30 29 31 28 24 30 31 33 30 27 28 27 22 21 20 24 24 24 24
7 7 9 15 7 8 7 8 9 12 15 14 10 9 7 7 9 20 23 35 39 40 44 45 46 46 42 37 33 26 25 27 28 31 31 26 30 34 33 29 28 28 25 22 22 20 26 22 23
7 9 13 14 8 4 4 13 7 7 6 7 9 10 10 11 7 9 25 25 37 43 43 44 45 45 41 42 34 33 27 24 26 28 30 28 30 32 30 27 28 30 27 24 24 24 25 25 23
6 9 8 8 9 4 16 2 8 2 6 6 6 8 9 12 9 9 20 34 44 42 44 45 43 41 41 44 35 33 28 25 27 29 31 28 31 34 32 29 26 22 24 20 20 25 24 29 27
7 7 9 7 5 4 17 5 6 4 6 6 7 9 3 13 20 22 30 40 41 40 38 40 43 41 41 42 37 35 32 29 29 31 33 32 34 35 34 30 27 24 21 21 22 25 28 25 27
5 6 5 6 5 6 6 1 6 4 6 7 7 9 10 19 24 22 32 24 31 37 41 42 42 40 41 43 41 37 35 36 34 31 34 33 31 36 37 30 25 27 23 24 29 29 28 28 28
7 5 4 7 6 10 8 8 8 13 22 18 16 14 16 19 19 15 23 22 27 40 41 41 42 41 43 44 44 40 38 37 33 33 30 31 33 33 28 27 25 24 26 27 28 25 27 25 24
7 5 9 5 8 6 3 6 7 16 16 15 11 13 15 15 11 14 15 19 21 25 33 39 40 38 41 44 42 43 37 37 35 28 29 33 29 26 22 24 23 23 23 23 24 26 27 25 26
7 8 4 4 5 6 5 4 3 7 8 6 12 12 9 14 11 12 12 17 22 31 36 29 37 41 42 38 40 40 34 37 34 36 26 30 29 25 25 22 20 24 24 25 25 24 23 22 22
12 5 5 1 3 2 4 3 7 1 4 9 9 8 4 3 16 14 11 18 27 39 56 43 35 36 37 38 34 34 38 29 32 35 31 32 29 26 26 24 21 22 22 22 24 25 23 23 23
7 3 3 4 6 3 3 3 7 6 5 1 12 15 13 6 2 7 9 23 13 28 39 27 34 35 35 33 30 29 28 30 33 33 37 35 32 31 28 27 23 24 24 24 24 23 21 19 19